TimeCDT,TemperatureF,Dew PointF,Humidity,Sea Level PressureIn,VisibilityMPH,Wind Direction,Wind SpeedMPH,Gust SpeedMPH,PrecipitationIn,Events,Conditions,WindDirDegrees,DateUTC
12:53 AM,43.0,34.0,71,30.15,-9999.0,Variable,4.6,-,N/A,,Clear,0,2012-10-28 05:53:00
1:53 AM,42.1,34.0,73,30.15,-9999.0,NNW,3.5,-,N/A,,Clear,330,2012-10-28 06:53:00
2:53 AM,42.1,34.0,73,30.15,-9999.0,Calm,Calm,-,N/A,,Clear,0,2012-10-28 07:53:00
3:53 AM,41.0,34.0,76,30.16,10.0,NNW,4.6,-,N/A,,Clear,330,2012-10-28 08:53:00
4:53 AM,39.9,34.0,79,30.16,-9999.0,Variable,4.6,-,N/A,,Clear,0,2012-10-28 09:53:00
5:53 AM,39.0,34.0,82,30.17,-9999.0,NNW,4.6,-,N/A,,Clear,340,2012-10-28 10:53:00
6:53 AM,39.9,33.1,77,30.18,-9999.0,Variable,4.6,-,N/A,,Clear,0,2012-10-28 11:53:00
8:53 AM,44.1,34.0,68,30.22,-9999.0,Variable,4.6,-,N/A,,Clear,0,2012-10-28 13:53:00
9:53 AM,46.9,34.0,61,30.22,-9999.0,Variable,4.6,-,N/A,,Clear,0,2012-10-28 14:53:00
10:53 AM,51.1,36.0,56,30.21,-9999.0,NE,8.1,-,N/A,,Clear,40,2012-10-28 15:53:00
12:53 PM,55.9,36.0,47,30.20,10.0,Variable,4.6,17.3,N/A,,Clear,0,2012-10-28 17:53:00
1:53 PM,57.0,34.0,42,30.19,10.0,Variable,5.8,-,N/A,,Clear,0,2012-10-28 18:53:00
2:53 PM,57.9,33.1,39,30.17,10.0,Variable,5.8,-,N/A,,Clear,0,2012-10-28 19:53:00
3:53 PM,57.9,33.1,39,30.17,10.0,NNW,10.4,17.3,N/A,,Clear,330,2012-10-28 20:53:00
4:53 PM,57.9,32.0,37,30.16,10.0,North,4.6,-,N/A,,Clear,10,2012-10-28 21:53:00
5:53 PM,55.0,34.0,45,30.17,10.0,Calm,Calm,-,N/A,,Clear,0,2012-10-28 22:53:00
6:53 PM,46.9,37.9,71,30.18,10.0,Calm,Calm,-,N/A,,Clear,0,2012-10-28 23:53:00
8:53 PM,41.0,37.0,86,30.19,10.0,Calm,Calm,-,N/A,,Clear,0,2012-10-29 01:53:00
9:53 PM,39.0,36.0,89,30.21,10.0,Calm,Calm,-,N/A,,Clear,0,2012-10-29 02:53:00
10:53 PM,39.0,36.0,89,30.22,10.0,Calm,Calm,-,N/A,,Clear,0,2012-10-29 03:53:00
11:53 PM,37.9,35.1,89,30.22,10.0,WNW,3.5,-,N/A,,Clear,300,2012-10-29 04:53:00